SCOUT A DEB, 31407

Orbit data source: Space-Track

SCOUT A DEB, 31407 is space debris in LEO originally from a launch on Thu, 19 May 1966 UTC launched from the Air Force Western Test Range (AFWTR). Debris objects in space refer to the collection of defunct objects orbiting the Earth. Examples of debris include non-operational satellites, rocket bodies, and fragments generated from explosions, collisions, or faulty payload assembly.

Loading next visibility...
Identifier
31407, 1966-041H
Orbit
LEO
Country
Flag of USUS
Related business
Manufacturer
Unknown
Mission
Spacecraft
Bus & Motor
Unknown
Mass
Unknown
Launch date (UTC)
1966-05-19 (60 years ago)
Launch vehicle
Unknown
Launch site
Air Force Western Test Range (AFWTR)
Object type
Payload
Rocket body
Debris
Shape & HBR
Unknown shape, 0.1 m
Radar Cross Section
Small (<0.1 m²)

Expand to show TLE details & history
Last TLE update: 4 days ago

TLE from 4 days ago
0 SCOUT A DEB
1 31407U 66041H   26132.57431648  .00001925  00000-0  69176-3 0  9993
2 31407  90.2025  74.0992 0056230   9.4343 350.7896 14.32700965495064
Epoch: 2026-05-12T13:47Z
TLE epoch observation values (Epoch: 2026-05-12T13:47:00.943Z)
Latitude
-0.00007°
Longitude
-3.00147°
Altitude
746.041 km
Speed
7.502 km/s
True Right ascension
04h 56m 23s
True Declination
0° 00' 00"
Sunlit
Object was in daylight at epoch
Visualization orbit readout
Latitude
Unknown
Longitude
Unknown
Altitude
Unknown
Speed
Unknown
Apparent Right ascension
Unknown
Apparent Declination
Unknown
Sunlit
N/A
Visualization observer readout
Local Sidereal Time
19:57:54
Azimuth
Unknown
Elevation
Unknown
Doppler factor
Unknown
Orbital elements
Apogee altitude
819.895 km
Perigee altitude
739.399 km
Semi-major axis
7,157.784 km
Eccentricity
0.00562
Inclination
90.2025°
RAAN
74.0992°
Arg. of periapsis
9.4343°
True anomaly
350.68575°
Mean anomaly
350.7896°
Eccentric anomaly
350.73774°
Mean motion
3.58406 °/min
Orbital period
100.44 mins
BSTAR
0.00069176
Loading maneuver chart data...
Computing Atmospheric mass density...
Loading historical data...
Loading historical data...
Loading historical data...
Loading historical data...
Loading historical data...
Loading historical data...
Loading historical data...

Documentation

Showing up to 5 results
|